Location: Tamazert
(32.6352°N, 5.2072°W)
Time: 21:33:21
(UTC+00:00)

Transit 2A Rocket - Pass Details

Date: 05 October 2022
Orbit: 589 x 911 km, 66.7° (Epoch: 28 November)

Event Time Altitude Azimuth Distance (km) Brightness Sun altitude
Rises 05:37:56 0° 226° (SW) 2,860 - -9.2°
Exits shadow 05:39:01 - 229° (SW) 2,440 7.2 -8.9°
Reaches altitude 10° 05:40:23 10° 236° (SW) 1,934 6.6 -8.6°
Maximum altitude 05:44:16 32° 301° (WNW) 1,012 5.2 -7.8°
Drops below altitude 10° 05:48:08 10° 5° (N) 1,921 7.2 -7.0°
Sets 05:50:34 0° 16° (NNE) 2,838 8.2 -6.5°
